DELTA 1 DEB, 7029

Orbit data source: Space-Track

DELTA 1 DEB, 7029 is space debris in SSO originally from a launch on Tue, 06 Nov 1973 UTC launched from the Air Force Western Test Range (AFWTR). Debris objects in space refer to the collection of defunct objects orbiting the Earth. Examples of debris include non-operational satellites, rocket bodies, and fragments generated from explosions, collisions, or faulty payload assembly.

Loading next visibility...
Identifier
7029, 1973-086V
Orbit
SSO
Country
Flag of USUS
Related business
Manufacturer
Unknown
Mission
Spacecraft
Bus & Motor
Unknown
Mass
Unknown
Launch date (UTC)
1973-11-06 (52 years ago)
Launch vehicle
Unknown
Launch site
Air Force Western Test Range (AFWTR)
Object type
Payload
Rocket body
Debris
Shape & HBR
Unknown shape, 0.5 m
Radar Cross Section
Medium (>0.1 m² and <1 m²)

Expand to show TLE details & history
Last TLE update: 9 hours ago

TLE from 9 hours ago
0 DELTA 1 DEB
1  7029U 73086V   25298.03003034 -.00000042  00000-0  36628-4 0  9997
2  7029 102.3631 308.4160 0012282 310.7400  70.7609 12.37168287346702
Epoch: 2025-10-25T00:43Z
TLE epoch observation values (Epoch: 2025-10-25T00:43:14.621Z)
Latitude
21.1187°
Longitude
-100.89408°
Altitude
1,517.693 km
Speed
7.11 km/s
True Right ascension
20h 14m 19s
True Declination
21° 00' 52"
Sunlit
Object was in daylight at epoch
Visualization orbit readout
Latitude
Unknown
Longitude
Unknown
Altitude
Unknown
Speed
Unknown
Apparent Right ascension
Unknown
Apparent Declination
Unknown
Sunlit
N/A
Visualization observer readout
Local Sidereal Time
04:42:11
Azimuth
Unknown
Elevation
Unknown
Doppler factor
Unknown
Orbital elements
Apogee altitude
1,525.926 km
Perigee altitude
1,506.534 km
Semi-major axis
7,894.367 km
Eccentricity
0.00123
Inclination
102.3631°
RAAN
308.416°
Arg. of periapsis
310.74°
True anomaly
70.89385°
Mean anomaly
70.7609°
Eccentric anomaly
70.82737°
Mean motion
3.09433 °/min
Orbital period
116.34 mins
BSTAR
0.000036628
Loading maneuver chart data...
Computing Atmospheric mass density...
Loading historical data...
Loading historical data...
Loading historical data...
Loading historical data...
Loading historical data...
Loading historical data...
Loading historical data...

Documentation

Showing up to 5 results
|